This is the latest recevied weather packets stored in our database for station/object N5CSU. If no packets are shown the sender has not sent any weather packets the latest 10 day(s).
| Time | Temp. | Humidity | Pressure | Rain* | Wind** | Luminosity | Snow |
|---|---|---|---|---|---|---|---|
| 1777827665 | 25° C | 48% | 1021.4 hPa | 0 mm | - | 110 W/m² | - |
| 1777827362 | 25° C | 46% | 1021.4 hPa | 0 mm | - | 66 W/m² | - |
| 1777827058 | 25° C | 48% | 1021.6 hPa | 0 mm | - | 25 W/m² | - |
| 1777826755 | 24.44° C | 50% | 1021.6 hPa | 0 mm | - | 109 W/m² | - |
| 1777826452 | 24.44° C | 48% | 1021.6 hPa | 0 mm | - | 247 W/m² | - |
| 1777826149 | 24.44° C | 49% | 1021.5 hPa | 0 mm | - | 333 W/m² | - |
| 1777825846 | 24.44° C | 49% | 1021.8 hPa | 0 mm | - | 97 W/m² | - |
| 1777825543 | 24.44° C | 51% | 1021.6 hPa | 0 mm | - | 334 W/m² | - |
| 1777825241 | 24.44° C | 51% | 1021.7 hPa | 0 mm | - | 204 W/m² | - |
| 1777824938 | 23.89° C | 49% | 1021.7 hPa | 0 mm | - | 28 W/m² | - |
| 1777824634 | 24.44° C | 49% | 1021.8 hPa | 0 mm | - | 67 W/m² | - |
| 1777824331 | 23.89° C | 52% | 1021.7 hPa | 0 mm | - | 526 W/m² | - |
| 1777824026 | 23.89° C | 51% | 1021.8 hPa | 0 mm | - | 519 W/m² | - |
| 1777823723 | 23.89° C | 51% | 1021.7 hPa | 0 mm | - | 289 W/m² | - |
| 1777823420 | 23.89° C | 51% | 1021.8 hPa | 0 mm | - | 14 W/m² | - |
| 1777823118 | 23.33° C | 53% | 1021.5 hPa | 0 mm | - | 13 W/m² | - |
| 1777822815 | 23.33° C | 50% | 1021.8 hPa | 0 mm | - | 13 W/m² | - |
| 1777822513 | 22.78° C | 50% | 1021.8 hPa | 0 mm | - | 13 W/m² | - |
| 1777822210 | 22.78° C | 52% | 1021.8 hPa | 0 mm | - | 13 W/m² | - |
| 1777821908 | 22.78° C | 54% | 1021.8 hPa | 0 mm | - | 13 W/m² | - |
| 1777821605 | 22.22° C | 50% | 1021.7 hPa | 0 mm | - | 12 W/m² | - |
| 1777821304 | 22.22° C | 52% | 1021.7 hPa | 0 mm | - | 12 W/m² | - |
| 1777821000 | 22.22° C | 52% | 1021.8 hPa | 0 mm | - | 12 W/m² | - |
| 1777820696 | 21.67° C | 55% | 1021.7 hPa | 0 mm | - | 12 W/m² | - |
| 1777820392 | 21.67° C | 56% | 1021.5 hPa | 0 mm | - | 12 W/m² | - |
* Rain latest hour (hover to see other rain measurements)
** Current wind speed in m/s (hover to see current wind gust speed)